TimeEDT,TemperatureF,Dew PointF,Humidity,Sea Level PressureIn,VisibilityMPH,Wind Direction,Wind SpeedMPH,Gust SpeedMPH,PrecipitationIn,Events,Conditions,WindDirDegrees,DateUTC
12:03 AM,53.6,51.8,94,30.16,9.0,Calm,Calm,-,N/A,,Overcast,0,2012-09-28 04:03:00
12:44 AM,53.6,51.8,94,30.15,10.0,Calm,Calm,-,N/A,,Overcast,0,2012-09-28 04:44:00
1:29 AM,53.6,51.8,94,30.15,10.0,Calm,Calm,-,N/A,,Overcast,0,2012-09-28 05:29:00
1:53 AM,54.0,52.0,93,30.15,7.0,Calm,Calm,-,N/A,,Overcast,0,2012-09-28 05:53:00
2:16 AM,53.6,51.8,94,30.15,8.0,Calm,Calm,-,N/A,,Overcast,0,2012-09-28 06:16:00
2:28 AM,53.6,51.8,94,30.15,8.0,Calm,Calm,-,N/A,,Overcast,0,2012-09-28 06:28:00
2:48 AM,53.6,51.8,94,30.14,7.0,Calm,Calm,-,N/A,,Overcast,0,2012-09-28 06:48:00
2:53 AM,54.0,52.0,93,30.14,7.0,Calm,Calm,-,N/A,,Overcast,0,2012-09-28 06:53:00
3:53 AM,53.1,51.1,93,30.15,6.0,Calm,Calm,-,N/A,,Overcast,0,2012-09-28 07:53:00
4:39 AM,53.6,51.8,94,30.15,6.0,Calm,Calm,-,N/A,,Overcast,0,2012-09-28 08:39:00
4:53 AM,53.1,51.1,93,30.14,2.0,Calm,Calm,-,N/A,,Overcast,0,2012-09-28 08:53:00
4:55 AM,51.8,51.8,100,30.14,1.2,Calm,Calm,-,N/A,,Overcast,0,2012-09-28 08:55:00
4:58 AM,51.8,51.8,100,30.14,0.8,Calm,Calm,-,N/A,,Overcast,0,2012-09-28 08:58:00
5:53 AM,51.1,50.0,96,30.14,0.2,Calm,Calm,-,N/A,Fog,Fog,0,2012-09-28 09:53:00
6:53 AM,50.0,50.0,100,30.15,0.2,Calm,Calm,-,N/A,Fog,Fog,0,2012-09-28 10:53:00
7:53 AM,51.1,50.0,96,30.17,0.2,Calm,Calm,-,N/A,Fog,Fog,0,2012-09-28 11:53:00
8:53 AM,50.0,48.9,96,30.16,0.2,Calm,Calm,-,N/A,Fog,Fog,0,2012-09-28 12:53:00
9:38 AM,51.8,51.8,100,30.16,2.0,Calm,Calm,-,N/A,,Overcast,0,2012-09-28 13:38:00
9:42 AM,51.8,51.8,100,30.16,1.0,Calm,Calm,-,N/A,,Overcast,0,2012-09-28 13:42:00
9:49 AM,51.8,51.8,100,30.16,0.5,Calm,Calm,-,N/A,Fog,Fog,0,2012-09-28 13:49:00
9:53 AM,52.0,51.1,97,30.16,0.8,Calm,Calm,-,N/A,,Overcast,0,2012-09-28 13:53:00
9:57 AM,51.8,51.8,100,30.16,1.2,Calm,Calm,-,N/A,,Overcast,0,2012-09-28 13:57:00
10:05 AM,53.6,51.8,94,30.16,3.0,Calm,Calm,-,N/A,,Overcast,0,2012-09-28 14:05:00
10:31 AM,53.6,51.8,94,30.16,10.0,Calm,Calm,-,N/A,,Partly Cloudy,0,2012-09-28 14:31:00
10:53 AM,55.9,52.0,87,30.17,10.0,Calm,Calm,-,N/A,,Clear,0,2012-09-28 14:53:00
11:53 AM,62.1,48.9,62,30.16,10.0,Calm,Calm,-,N/A,,Clear,0,2012-09-28 15:53:00
12:53 PM,63.0,48.0,58,30.15,10.0,NE,5.8,-,N/A,,Partly Cloudy,40,2012-09-28 16:53:00
1:53 PM,64.0,46.0,52,30.13,10.0,Calm,Calm,-,N/A,,Clear,0,2012-09-28 17:53:00
2:53 PM,66.0,46.9,50,30.12,10.0,NW,6.9,-,N/A,,Scattered Clouds,320,2012-09-28 18:53:00
3:53 PM,66.9,46.0,47,30.11,10.0,Variable,3.5,-,N/A,,Mostly Cloudy,0,2012-09-28 19:53:00
4:53 PM,66.9,46.9,49,30.09,10.0,North,6.9,-,N/A,,Mostly Cloudy,10,2012-09-28 20:53:00
5:53 PM,66.0,45.0,47,30.08,10.0,NNE,4.6,-,N/A,,Partly Cloudy,30,2012-09-28 21:53:00
6:53 PM,60.1,50.0,69,30.08,10.0,Calm,Calm,-,N/A,,Clear,0,2012-09-28 22:53:00
7:53 PM,57.9,44.1,60,30.09,10.0,North,4.6,-,N/A,,Clear,360,2012-09-28 23:53:00
8:53 PM,51.1,48.0,89,30.10,10.0,Calm,Calm,-,N/A,,Clear,0,2012-09-29 00:53:00
9:53 PM,51.1,46.9,86,30.11,10.0,Calm,Calm,-,N/A,,Overcast,0,2012-09-29 01:53:00
10:53 PM,48.0,45.0,89,30.11,10.0,Calm,Calm,-,N/A,,Clear,0,2012-09-29 02:53:00
11:53 PM,46.0,44.1,93,30.12,10.0,Calm,Calm,-,N/A,,Clear,0,2012-09-29 03:53:00